CAPE
1729 2093 2206 2284 2458 2214 2250 2531 2853 2450 2239 2403 2425 2385 2570 2392 2608 2911 2123 2223 1711 957 826 792 723 906 952 847 1152 1297 1550 1670 1643 1429 1171 1356 2081 2997 3305 3240 3046 3554 3460 3635 3764 3966 3968 3902 3950 4046 4164 4252 4370 4467 4633 4868 5013 5170 5333 5420 5561 5751 5783 5685 5658 5679 5720 5734 5749 5731 5666 5699 5679 5521 5381 5384 5387 5347 5310 5263 5144 4911 4656 4657 4674
1657 1880 2308 2378 2267 2023 2641 2694 2115 1806 2353 2464 2125 1888 1793 1656 1856 1969 1676 1831 1608 1804 1290 782 815 879 870 772 1140 1278 1339 1484 1587 1605 1511 1492 1718 2449 3453 3607 3188 3408 3432 3517 3658 3785 3874 4019 4164 4402 4498 4656 4789 4759 4822 5056 5301 5434 5578 5762 5864 5844 5900 5966 6024 5970 5960 5953 5920 5842 5782 5736 5628 5712 5702 5682 5585 5495 5426 5326 5274 4617 4543 4523 4578
1408 2583 2674 2793 2506 2372 2262 2525 2128 1714 2541 2456 1806 2181 2899 1869 2175 1885 1581 1470 1969 1351 1234 723 688 513 860 814 1131 1253 920 875 1526 1652 1691 1674 1890 2162 3726 3739 3895 3814 3776 3716 3856 3919 3900 4085 4355 4657 4781 4854 5032 5234 5355 5456 5576 5640 5688 5785 5930 5982 6094 6078 5997 5928 5973 5989 5761 5807 5914 6040 6091 5821 5690 5682 5824 5788 5694 5526 5053 4894 4619 4707 4481
3776 3012 2844 2872 2806 2578 3040 2149 1343 2588 3011 2618 2435 2513 3014 2673 2422 2339 1988 2120 2134 2544 1527 581 503 499 644 694 900 849 913 780 867 1690 1663 1861 1940 1942 2462 3599 4195 4154 4218 4234 4053 4187 4226 4346 4464 4609 4809 5034 5139 5340 5464 5376 5561 5729 5829 5827 5952 6236 6460 6328 6025 5897 6043 5892 5724 5629 5565 5514 5508 5591 5636 5596 5594 5633 5653 5673 5338 4871 4706 4443 4346
3877 3200 3974 2993 2794 2952 3409 2664 2454 2336 2042 3400 3352 4282 3562 2876 2538 2795 2976 2826 1440 1309 1160 580 522 529 529 606 684 624 750 639 733 1043 1516 1755 1690 1627 1731 2890 3704 4638 4600 4632 4468 4532 4653 4726 4931 5124 5126 5166 5357 5345 5242 5259 5461 5747 5886 5894 6036 6002 6125 6258 6080 5962 5873 5744 5585 5420 5334 5272 5268 5310 5379 5446 5538 5598 5600 5592 4995 5076 4611 4128 3961
3843 3104 3257 2901 2807 3203 2656 2681 3116 3691 4293 3741 2441 2707 3052 3579 2876 2512 2870 1855 1539 1098 1127 586 495 525 560 444 623 741 662 631 530 595 1028 1510 1500 1896 1824 2323 2715 2905 3717 5080 4814 5017 5140 5229 5324 5506 5441 5528 5534 5662 5747 5693 5536 5577 5778 6007 6260 6188 6238 6369 6151 5949 5820 5549 5347 5269 5229 5264 5385 5536 5550 5370 5252 5346 5546 5631 5518 4945 4628 4525 4306
3515 4093 3896 3208 2994 2771 2509 2077 3296 3562 4122 4107 3180 3136 3264 3477 2986 1909 2010 2192 2326 1828 1483 479 558 497 525 545 378 528 751 459 312 419 571 629 776 1888 1993 2333 2528 2401 2938 2908 4004 4718 4729 5450 5898 6020 6002 5608 5943 6141 6246 6132 6152 5898 6061 6196 5836 6304 6325 6275 6100 5798 5590 5442 5342 5266 5325 5454 5606 5499 5197 5129 5214 5168 5226 5422 5314 5014 4338 3958 3833
4184 4744 3341 3729 2699 2812 2591 3796 4096 3347 4100 3162 2524 2192 2079 2874 3238 2699 2058 2410 3024 2125 848 525 627 619 510 547 546 549 378 375 211 385 346 506 489 1110 1306 1837 2222 2313 3311 2743 2752 3112 4320 5211 5853 5621 5388 5302 5493 5687 5380 5780 6356 6555 5778 5837 6148 6532 6490 6429 5935 5681 5490 5418 5385 5497 5685 5855 5557 5103 5054 5123 5275 5271 5232 5186 4741 4235 3868 3650 3575
3874 4349 4195 2622 2666 2786 2589 2627 3806 3741 3382 3312 3333 3287 2476 2719 2566 3283 2992 2586 3028 2455 1235 282 618 480 461 369 486 508 284 592 576 173 451 316 383 724 950 1032 1332 3451 2612 2269 2660 2678 2978 4027 5007 5340 5322 5094 5044 5244 5584 6379 6354 6664 5987 5487 5619 6409 6198 6088 5808 5525 5407 5698 5806 5873 5895 5656 5147 4946 4929 5048 5303 5232 5065 4758 4289 3787 3654 3328 2914
4393 4485 4654 4579 4660 3434 2217 3657 4114 3545 2960 2445 2336 2695 2522 2629 2268 2977 3658 2928 2802 2301 1483 667 326 434 248 235 325 407 358 465 698 1654 220 147 243 219 525 471 850 1570 1844 1232 954 1543 2232 2955 4343 4846 5120 5025 4788 4542 4687 5270 5782 6274 5870 6003 6323 6449 6272 5794 5524 5397 5551 5592 5847 6002 5668 5349 5077 5083 5139 5229 5264 5149 4906 4491 3854 3603 3439 2901 2577
4650 5139 4430 4649 3892 4236 3614 3327 4207 4340 3536 2382 3073 2977 3087 2754 2799 3033 3803 3514 2822 2476 1944 1276 364 940 144 215 44 708 196 441 533 279 266 246 218 494 242 224 471 501 630 452 475 564 1757 2009 1991 2512 2845 3427 3937 3900 4346 4550 4704 4637 5006 5391 5555 6132 6135 5689 5438 5437 5494 5730 5944 5787 5210 4857 4872 5332 5181 5234 5250 5101 4741 4091 3544 3321 3161 2584 2046
4490 4827 4747 5205 4483 3700 4438 3892 3655 3472 2907 2520 2531 3516 3359 3173 2942 4704 2500 3700 4066 2316 1630 1408 1804 1814 1192 215 322 251 126 244 214 405 618 363 439 428 190 862 752 888 494 595 886 797 1230 3174 3001 2785 2214 1840 2411 3459 3831 3570 3906 3734 4478 4955 5050 5422 5458 5235 5191 5462 5355 5459 5498 5093 4729 4641 4984 5286 5111 5172 5283 4948 4425 3640 3324 3271 2814 2210 1659
4897 5092 4511 4705 4772 4352 4281 3524 4451 4295 3660 3054 2862 3811 3440 3574 4587 4708 3960 2183 2669 1655 1630 3308 1006 948 2053 1290 613 511 1682 1722 462 394 353 424 475 346 323 622 1257 839 882 657 1082 1691 1556 1960 2090 2413 2479 2353 2513 3050 3983 3225 3282 3957 4477 4790 5127 5737 5151 5408 5565 5315 5179 5145 5125 4790 4697 4685 5028 5112 5077 5016 5186 4658 3993 3358 3299 3179 2366 2030 878
4386 4250 4745 4348 4242 4679 4328 4047 4999 3077 5347 6567 3977 5379 3834 3782 4078 2937 3144 2126 1671 2054 1815 1101 823 1521 1466 1472 2340 1253 3226 1318 1142 797 642 525 570 1250 1094 286 770 828 950 435 568 823 1170 1521 2249 2723 2295 2354 2704 3220 3639 4217 3918 3612 4217 4705 4940 4919 4900 5133 5228 5090 4935 4907 4755 4652 4869 4904 4904 4994 4984 4953 5002 4261 3719 3372 3142 2869 2200 1430 996
4129 4516 4238 4239 4305 5044 4305 4494 3852 4761 3759 3297 3542 4132 4222 3516 3041 3086 2852 2948 2376 2124 2004 1791 1331 2673 3290 2056 1783 1166 1898 1186 2290 1761 909 664 846 629 1305 887 706 1532 1398 457 943 1220 1498 1675 1674 1930 2240 2856 2928 3034 3821 3516 3330 4112 4022 3811 3859 4555 4691 4982 4969 4975 5001 5069 4515 4562 4778 4723 4682 4783 4734 4884 4446 3956 3594 3279 3050 2401 1896 983 965
3706 4314 4133 4395 4011 3387 3855 4656 3546 4757 4012 3238 3568 4011 2615 2914 2845 3831 2828 1422 1782 1644 2572 2058 2178 1925 1368 1347 1417 1996 1640 1135 1660 1464 1356 625 1974 1036 843 543 493 1558 1228 1265 1270 1712 1323 1289 1799 1949 1874 2011 2379 2798 3427 2883 3113 4136 5730 4604 3639 3526 4076 4738 4723 4817 4972 4706 4538 4501 4448 4469 4468 4541 4462 4541 4139 3858 3362 3284 2734 1931 1311 947 900
3307 3753 3941 4275 3962 3984 3883 3742 4976 3631 2741 4914 2846 3550 2780 2993 3168 3340 2597 1283 1259 2302 2775 2774 2359 3551 1637 1931 1635 1654 1785 1540 1063 1219 2643 1672 1583 1124 1060 1026 597 1490 1126 1207 1144 1564 1310 951 1012 1155 1570 1645 1669 2586 2895 2839 2818 5541 5667 4659 3556 3351 3592 4135 4093 4486 4652 4400 4427 4193 4319 4316 4304 4325 4355 4203 3979 3566 3227 3090 2089 1568 935 902 881
3172 3511 4182 4488 4032 3779 3756 4286 3711 4175 5568 3375 3964 3776 2448 2714 3007 3386 2904 3312 2330 2486 2996 3152 2814 2288 1881 2595 1512 1041 1017 1223 1098 1184 1656 3659 1728 956 920 617 791 1013 1145 1250 1121 1176 1694 1211 1021 932 1070 1312 2104 3015 3098 2910 3790 4966 3807 3454 3458 3998 3793 3533 3925 4062 4207 3996 3956 3965 4036 3986 3920 4110 4042 3993 3921 3490 3313 2724 1714 1293 925 883 802
3480 3465 3738 4490 3872 4296 4006 3760 3732 3201 4974 3602 2648 3252 2363 2564 3771 3046 3342 4918 3503 2733 3438 3362 2898 2307 1997 1780 2214 2034 1959 1518 1564 1932 1237 1439 2309 1273 879 642 614 866 742 938 1173 1229 1679 1748 983 945 1336 1569 2287 2673 2518 2741 3265 4219 3801 3148 2965 4068 3619 3826 3422 3716 3702 3649 3782 3761 3794 3736 3769 3762 3781 3766 4018 3348 3179 2263 1501 943 884 768 682
3380 3734 4124 4342 4108 4032 4198 4371 3530 3655 4394 3577 3132 2802 3418 3518 4049 3346 5462 5286 4080 2805 2741 4046 2482 2107 3370 2140 2966 2633 1415 1697 1389 1569 1370 970 1117 1463 1033 1077 886 690 1153 1307 1734 1456 1398 1254 1081 1164 1388 1963 2946 2666 2510 2639 2535 3397 3726 3172 3191 3575 3854 2856 3063 3575 3448 3462 3508 3571 3447 3594 3606 3493 3565 3620 3780 3430 3136 2141 1387 1163 990 887 671
3587 3859 3923 3979 4393 4104 4001 4261 4381 3681 4902 3116 2654 3188 2662 2886 4162 3706 4279 4217 4112 3934 3554 3229 3232 2262 1876 2041 2923 2041 1560 1359 1824 1018 1166 1229 1164 1292 1003 1112 1091 723 1377 1618 1197 1079 1306 982 1028 1778 2057 2879 3062 3010 2375 2130 2208 3391 3531 2739 3728 4012 3805 2526 2718 3457 2922 3028 3326 3294 3275 3385 3487 3376 3297 3521 3627 3228 3016 2066 1315 897 939 779 648
3646 4001 3664 3703 3883 4572 4024 4298 4122 4105 4449 2586 2170 2312 2686 3242 3774 3948 3555 4092 3960 4068 3948 4222 3548 3208 2358 1710 1866 2780 1990 1719 1478 1063 1054 1388 1148 1155 1126 1132 872 942 1580 1099 945 1070 1260 1049 1190 1142 1340 1393 2367 3413 2568 2209 2015 2360 2870 2385 3644 3474 3123 2784 2802 3204 2652 2632 3041 2949 3102 3223 3205 3138 3124 3356 3532 3287 3066 2100 1298 1018 852 687 592
2817 3787 3492 4019 3677 4537 4111 3763 3705 5432 4723 2556 3002 2496 2559 2962 3162 3887 3893 3515 3462 3337 3632 3363 3302 2809 2374 2248 2528 2068 1410 1670 1334 1174 1447 1616 1307 1464 939 1142 1034 1124 1080 1562 2202 1773 980 1206 1118 1215 1908 2634 2872 2577 2341 2063 2464 2865 2674 1747 2722 2710 2780 2735 2972 2781 2448 2370 2583 2856 2857 2852 2816 2908 2890 3076 3297 3061 3070 2158 1282 977 902 728 550
2772 3449 3436 3754 3479 3888 3900 3705 4553 3700 3386 3840 3123 2429 2724 2244 2856 3112 3231 3952 4664 4526 3498 3250 3448 2832 2919 2068 1719 1732 1391 1035 1434 1062 1747 1066 997 1236 1251 1238 1408 1343 1221 1357 1202 993 1039 1065 1078 1196 1558 2235 2388 1903 2160 2677 2286 3326 2722 2085 2622 2607 2223 2773 3076 2833 2207 2117 2066 2321 2356 2364 2369 2407 2470 2668 2913 3091 3082 2337 1433 896 854 704 558
3017 3044 3101 3240 3278 3311 3389 3668 3883 3661 3831 4000 4235 3735 3123 2660 2952 3980 3755 4226 3821 4112 4040 4072 3314 2690 2465 2067 1732 1714 1427 1462 1678 1505 1194 869 1108 1600 2072 1054 1459 1571 1826 1502 1397 905 795 1199 1034 1312 1457 2091 2150 2301 2426 2082 1604 1928 3079 2421 2238 2229 2055 2545 3004 2672 1878 1680 1699 1977 2083 2030 1968 2094 2124 2270 2515 2898 3034 2406 1500 906 893 808 734
2850 2878 2436 2698 3223 3162 3666 3454 3692 4158 4034 3060 4266 4267 4121 2908 2807 2974 3304 3270 3591 3363 3009 3335 3119 2734 2416 1971 1920 1742 1569 1872 1448 1602 1191 1143 1208 1207 1446 1928 2161 2085 2023 1590 1628 1242 1041 1089 988 1114 1456 1702 2519 2716 2664 2086 1999 1938 2567 1768 1798 1578 1993 2070 2536 2536 2166 1593 1417 1605 1754 1673 1810 1861 1957 2208 2325 2695 2891 2527 1727 1090 1098 848 690
2844 2350 2449 2621 2876 3209 3939 3368 3720 4653 4064 3556 3926 3902 4568 3263 3493 3576 4110 3140 2672 3704 3612 3237 2795 2488 2589 2343 2182 1844 1924 1751 1531 1416 1292 1235 1550 1887 1708 2059 2070 2514 2637 2314 1806 1746 1508 1291 961 1525 2153 3294 3004 2789 2868 2415 1871 2051 2253 1951 1420 1489 1810 1631 1667 2104 1986 1444 1514 1593 1515 1523 1572 1644 1892 2065 2178 2635 2816 2560 1824 1366 986 864 758
2404 2748 2484 2834 2919 3060 3982 3379 3400 3841 4098 3870 3574 3329 3278 3659 4046 3792 3169 3490 2942 3319 3392 3220 3058 2898 2301 1891 2180 1789 1634 1474 1478 1450 1200 1349 1219 1858 2242 2244 1668 1740 2575 2518 2376 2179 2174 1549 1780 2326 2638 3254 2738 2031 1802 1574 1264 1553 1438 2066 1631 1429 1725 1374 1516 1546 1462 1172 1160 944 968 1134 1255 1428 1582 1796 2108 2584 2741 2633 1961 1533 1161 929 715
2472 3101 2348 2353 2776 2921 3525 3410 3449 3439 3542 3487 3486 3523 3797 3778 3785 4044 3869 3284 3320 4150 4036 3469 3077 2578 2159 2089 1843 1472 1380 1170 1196 1354 1786 1693 1673 2182 2854 2262 1882 1699 2275 2158 2106 2299 2385 1915 1823 1956 2782 2461 1675 1808 1718 1554 1260 1721 1418 1550 1470 1422 1644 1251 1514 1476 1271 1110 1148 721 709 932 1177 1303 1303 1460 1963 2629 2725 2742 2220 1596 1141 1114 736
2389 2138 1974 2358 2622 3725 3242 3174 3846 3757 3414 3531 3513 3173 4116 3746 3668 3756 3880 3696 3569 3926 4062 3247 2616 2579 2386 1614 2088 2253 2399 2087 1974 1856 2232 3167 2370 2382 1874 3038 3080 1864 2310 1363 1548 2516 2491 2459 2049 1992 1798 1753 2136 2028 1706 1479 1563 1848 1414 1139 1608 1736 1467 1196 1463 1339 1067 1107 952 64 262 555 986 1204 1324 1288 1620 2382 2738 2794 2336 1656 1314 1095 1076
2226 2374 2002 1949 2702 3105 3194 3533 3718 3655 3462 3666 3469 3172 3635 3663 3516 3596 3661 3732 3272 2966 3334 3306 2809 2634 2325 2371 2304 2494 2790 2460 2527 2238 1850 1545 1290 854 1436 3102 3969 2500 2264 1925 2302 2945 2908 2652 2508 2367 1953 1788 2475 2597 2062 2255 2128 1770 1578 1522 1837 1918 1415 1219 1379 1152 1000 1055 548 0 13 2 477 864 1162 1315 1598 2134 2782 2752 2396 1891 1585 1047 1091
2031 2151 2066 2035 2078 2628 2776 3023 3115 3264 3497 3308 3760 3671 4022 3638 3577 3407 2976 3229 3593 3749 3858 3667 3257 2676 2477 2726 2996 3290 3193 2562 2150 2031 1909 1588 1360 1276 1322 2989 4056 3410 2708 2762 2076 1730 2504 2699 2595 2615 2081 1952 2838 2312 2376 2086 1804 1716 1795 2052 2132 1643 1024 1099 1517 1108 965 856 17 0 0 0 0 142 748 1103 1399 2166 2639 2678 2541 2042 1634 1159 979
2127 2046 2096 1952 2149 2520 2602 2512 2461 2960 3124 2903 2869 3178 3152 3347 3454 3481 3210 3050 3491 3824 4158 3582 3196 2510 2334 2212 1849 2026 1856 1895 1905 1959 1792 1562 1363 1372 1359 1909 2613 3726 3581 3251 2841 2927 2608 2830 3611 2813 2322 2357 2591 2217 1779 1709 1662 1570 1924 2285 1934 1238 907 1188 1334 1120 931 682 0 0 0 0 0 0 1 418 1135 2078 2332 2528 2578 1937 1541 1158 987
1760 1924 1568 2379 2386 2623 2640 2502 2274 2675 2699 2523 2826 2798 3260 3474 3421 3703 2733 2568 2167 1961 2367 2889 2650 2386 2126 1883 1699 1765 1982 1611 1584 1719 1950 1764 1524 1356 1112 1136 1755 1926 2864 2863 2632 2119 1699 2507 2680 2973 2505 2260 2128 2412 2089 2068 1994 2056 2127 2365 2121 1183 1174 1415 1105 1038 882 702 491 464 0 0 0 0 0 0 663 1734 2236 2333 2178 1759 1484 1069 1016
1412 1759 1983 2073 2309 2354 2500 2520 2165 2399 2238 2454 2510 2649 2874 3368 3251 2721 2495 2175 1998 1846 2114 2556 2517 2162 2130 2335 2022 1772 2252 2110 2316 2316 1949 1604 1516 1284 1166 1070 1176 1495 2281 2307 2021 2190 2380 1919 2521 1974 1886 2150 2062 1982 2151 2239 2154 2078 2094 2496 2321 1658 1687 1325 1139 1032 944 707 528 561 485 0 0 0 0 0 45 1000 1736 2031 1993 1640 1316 835 907
995 1924 2031 2007 1911 2068 2256 2454 2056 2209 2252 2063 2712 2769 2672 2799 2991 2460 2254 2256 2155 1950 2270 2692 2641 2208 2172 2150 2073 2243 2270 2099 2285 2109 1949 1726 1808 1771 1800 1542 1406 1626 1997 2264 2458 1839 1801 1747 1704 2025 2113 1728 1636 1907 1815 1694 1855 1976 2173 2800 2100 1652 1327 1495 1395 1192 831 586 452 504 518 0 0 0 0 0 0 193 919 1363 1602 1519 1215 899 794
1124 1734 2053 2050 2238 2459 2025 2228 2836 2421 2518 2614 2640 2493 2639 2982 2608 2598 2424 2332 2196 2304 2783 2574 3253 2174 2174 1922 2182 2449 1971 1863 2147 2346 2402 2440 2378 2174 1558 1854 1909 1868 2328 2346 2128 1969 1901 1924 1863 1872 2098 2028 1874 1777 1958 2102 2116 2453 2607 2609 1961 1778 1126 834 936 853 539 530 520 360 169 0 94 0 0 0 0 0 140 560 882 993 1053 1021 977
1099 1124 2164 2000 2129 2169 1926 2106 2702 2992 3074 2914 2847 2764 2702 2415 2575 2170 2702 2694 2715 2856 2960 2714 2862 2866 2682 2395 2357 2340 2266 2206 2435 2258 2159 2292 2459 2037 1789 1792 2325 2105 2282 2506 2574 2024 2208 2279 2212 1989 1904 2031 2094 2123 2327 2597 2599 2803 2888 2517 1874 1984 1380 1028 938 620 676 746 662 323 0 23 404 63 12 0 0 0 0 0 0 490 856 972 1036
1040 884 963 1845 2210 1957 2106 2481 2552 2846 2882 2686 3070 3129 2951 2781 2262 2295 2375 2152 2471 2874 2743 2388 2381 2748 2724 2496 2334 2423 2387 2228 2100 2170 2112 2352 2731 2395 2263 2088 3000 2706 2502 2415 2613 2508 2646 2678 2640 2513 2399 2402 2522 2512 2690 2926 2928 2825 2480 2293 1737 1638 1490 1228 730 900 421 656 674 576 386 256 292 355 235 0 0 0 0 0 0 0 215 547 863
935 826 800 1390 2387 1950 2108 1998 1963 2830 2190 2706 2884 3033 3390 2752 2405 2665 2379 2374 2732 2610 2462 2390 2389 2416 2342 2190 2095 2109 2270 2308 2424 2096 2296 2856 3296 3060 2981 2772 3089 3323 3061 3143 3200 3109 3099 3091 2910 2705 2622 2684 2757 2874 3156 2883 2584 2656 2774 2252 1515 1206 989 1158 1014 838 846 1151 821 633 424 194 212 204 220 116 0 0 0 0 0 0 0 153 246
1137 735 628 1091 1296 1169 1098 986 1355 1693 1891 1965 2756 3036 3051 3129 2994 2630 2662 2969 2784 2646 2614 2502 2385 2348 2214 2227 1988 1932 2972 3879 3047 3461 3818 2848 2484 2234 2280 2490 2908 3055 2966 3231 3109 3010 2926 2828 2690 2467 2330 2182 2399 2691 2710 2469 2085 1516 2337 2076 1851 1564 1512 1376 1141 1264 1389 832 1105 472 405 577 569 378 251 248 70 0 0 0 0 0 0 0 33
1362 766 916 1042 932 903 850 944 1125 1558 1855 2243 2171 2816 2657 2472 2593 2534 2553 2310 2265 2377 2621 2852 2641 2401 1897 1785 2149 2193 3072 3809 3607 3001 2715 2490 2474 2078 1871 1877 2116 2566 2950 3155 2990 2726 2786 2709 2588 2542 2458 2362 2276 2176 2385 2412 2082 2859 2740 2337 1976 1703 1649 1462 1264 1552 1820 1059 861 478 763 836 667 499 316 250 197 93 42 0 0 0 0 0 0
2871 1161 727 1012 887 798 845 693 967 1273 1574 1812 1997 2206 2114 2094 2236 2357 2311 2036 2264 2002 2106 2390 2770 1573 1763 2291 2145 2941 2829 2380 1912 1944 1775 1320 1150 1347 1740 2338 2546 2700 2863 2778 2779 2689 2402 2054 2037 2124 2227 2223 2146 2084 2082 2151 1979 2439 2544 2562 2382 1847 1276 1038 886 1349 2728 1252 1555 1578 1439 1116 675 390 324 338 222 165 177 154 0 0 0 0 0
2394 1817 1494 1302 1214 1056 902 858 878 986 1126 1313 1318 1253 1128 1251 1528 1793 1794 1638 1606 1231 2349 1632 1895 2224 2500 2485 2139 2219 2009 1740 1666 1489 1262 1030 952 870 957 984 1285 2154 2657 2716 2382 1613 1546 2000 2114 2063 1874 1847 1875 1765 1812 1586 1293 1361 1845 2404 2276 2012 1700 1269 1204 1293 1956 2634 1230 1165 1087 715 565 354 286 292 268 204 251 216 0 0 0 0 0
1966 2189 1964 1722 1484 1264 989 794 681 755 820 952 1078 880 765 905 1045 1076 1091 1515 1710 1435 1438 1398 1566 1919 2051 2344 2098 1860 1748 1634 1399 1151 950 855 784 698 629 580 559 659 938 1234 1479 1960 1740 1816 1888 1853 1678 1538 1458 1385 1248 1198 1314 1307 1495 1614 1766 1630 1274 1463 1418 1298 1323 2478 805 914 884 933 442 240 327 330 272 291 300 175 0 0 0 0 0
2237 2030 1881 1800 1667 1558 1318 950 673 508 563 597 624 622 823 954 957 872 804 1420 1683 1672 1461 1301 1334 1431 1518 1564 1491 1523 1440 1253 1041 888 718 592 509 431 349 256 87 109 218 630 1466 1251 1188 1406 1336 1263 1336 1242 1302 1480 1442 1412 1320 1246 1311 1285 1328 1156 927 961 1159 1286 1485 1490 1465 1290 858 583 496 390 336 323 292 229 105 19 0 0 0 0 0
1992 1668 1580 1543 1485 1464 1398 1200 999 810 688 700 774 866 839 868 894 874 1173 1855 1911 1412 1240 1194 1110 1234 1145 1157 1058 1158 1173 934 674 497 374 290 219 73 0 0 0 0 49 538 456 427 502 564 595 613 645 684 769 831 848 1066 1430 1374 1230 1193 1236 1213 964 978 1122 1307 1201 1039 1088 1030 733 516 296 220 198 197 160 113 71 51 30 0 0 0 0
2463 2066 1717 1563 1486 1325 1212 1127 1001 838 717 698 724 694 624 749 780 823 1100 1186 1114 1021 1078 1184 1533 1417 1240 1079 983 708 487 356 266 138 0 0 0 0 0 0 0 0 71 198 194 204 190 260 295 268 121 404 426 405 427 451 437 568 810 936 825 787 748 838 894 873 935 884 764 663 535 350 267 190 157 144 144 114 66 38 31 21 0 0 0
2624 2350 1965 1662 1510 1335 1183 1077 948 796 769 747 679 662 748 855 942 988 916 726 798 871 824 748 710 607 473 350 255 189 103 10 0 0 0 0 0 0 0 0 0 0 0 0 0 0 0 0 0 0 0 0 0 0 0 0 0 190 291 361 406 309 446 472 375 397 667 897 763 648 552 297 301 249 180 120 110 83 35 47 40 23 20 3 0
2079 2017 1834 1520 1328 1318 1306 1197 1105 1096 983 955 983 1004 956 950 900 750 496 524 556 530 458 358 224 174 130 20 0 0 0 0 0 0 0 0 0 0 0 0 0 0 0 0 0 0 0 0 0 0 0 0 13 4 30 73 149 179 161 209 350 358 307 221 40 126 772 1214 831 1157 257 436 190 159 100 61 46 61 38 22 29 34 0 11 0
1738 1487 1338 1281 1225 1180 1234 1313 1161 1179 1093 997 846 772 759 717 609 443 334 276 206 124 69 12 0 0 0 0 0 0 0 0 0 0 0 0 0 0 0 0 0 0 0 0 0 0 0 0 0 0 0 0 16 20 77 114 161 189 170 220 235 174 193 175 164 202 205 431 198 196 140 122 37 23 20 27 39 38 24 18 20 22 16 8 0
Wind_Speed
14 12 10 9 9 10 12 13 14 16 14 15 18 20 17 15 19 19 17 18 20 14 10 11 10 10 10 8 6 6 4 3 4 5 5 5 6 9 15 16 16 17 17 17 18 18 19 19 20 20 20 21 20 20 20 19 19 19 19 18 18 18 17 18 17 18 18 18 17 15 14 14 16 18 20 23 26 28 29 30 29 28 26 25 24
12 12 8 9 10 12 13 15 16 18 18 20 16 14 15 16 16 17 17 19 19 14 14 10 12 12 10 11 8 7 7 5 6 6 5 5 6 7 14 14 15 15 17 17 18 18 18 19 18 19 19 20 20 20 20 20 19 19 19 19 18 17 17 17 17 17 17 18 17 15 14 14 14 16 19 22 25 27 30 30 29 27 26 25 22
10 11 8 9 11 13 15 15 18 19 19 18 15 15 14 13 16 16 17 19 19 17 11 12 12 12 12 11 8 6 7 7 5 5 5 6 6 6 9 15 15 16 16 17 17 18 18 18 18 18 19 19 19 20 21 21 21 20 19 18 18 18 17 16 16 16 16 16 15 14 13 13 15 16 17 19 23 27 30 30 29 27 26 25 23
11 11 9 9 12 15 16 16 18 19 16 13 15 15 14 15 15 16 17 17 18 19 14 9 12 14 13 11 7 7 7 7 6 5 5 6 6 7 7 9 15 16 17 18 18 18 17 17 18 19 19 19 19 20 21 22 21 20 19 18 18 17 16 15 15 15 15 14 14 13 12 12 12 14 15 18 21 24 27 28 28 27 27 26 24
10 9 9 10 12 16 17 17 18 16 13 12 12 11 11 13 15 15 17 17 16 16 13 11 11 13 11 10 8 6 5 5 7 4 5 6 7 7 8 9 10 14 15 16 17 17 17 17 18 20 20 20 20 20 21 21 20 19 18 17 16 15 15 13 13 12 12 13 13 12 12 11 11 11 12 15 19 22 25 27 27 28 29 27 26
9 10 11 12 15 16 16 16 16 15 11 10 12 13 14 13 13 14 17 17 15 16 15 13 11 11 10 10 8 7 6 7 6 5 4 6 7 7 9 9 10 10 10 14 16 16 17 18 20 21 21 20 20 20 21 21 19 18 17 16 15 14 13 12 11 11 12 13 13 13 11 11 10 10 11 13 16 19 22 25 28 27 27 29 26
10 11 13 14 16 17 16 16 13 10 10 10 10 13 13 13 13 13 14 13 13 14 15 11 7 9 12 9 8 5 5 5 4 4 4 6 6 9 10 9 9 9 9 10 12 17 18 19 21 21 21 20 20 19 18 18 18 17 17 16 14 13 12 11 10 11 12 12 12 11 11 10 9 10 11 13 15 18 20 25 27 29 31 29 27
11 11 11 15 15 14 13 13 10 9 10 10 9 11 13 13 10 10 11 13 13 14 14 8 4 4 7 8 9 7 5 4 4 5 4 7 8 10 11 9 9 10 9 10 11 14 18 18 19 21 21 20 19 18 17 16 16 16 15 13 12 12 11 10 10 10 10 9 10 10 10 10 9 9 10 11 13 17 20 25 29 31 31 30 29
11 12 13 14 16 14 11 9 9 10 10 11 11 8 9 11 11 10 8 10 11 13 13 9 9 8 4 5 5 4 3 4 3 5 6 7 8 9 8 8 8 10 11 12 13 14 15 18 19 20 20 19 18 16 16 15 15 15 14 12 10 11 9 7 7 8 8 8 10 10 9 9 8 8 8 9 11 16 20 26 30 31 31 31 30
11 13 12 14 16 15 10 6 6 8 8 9 9 10 10 8 11 10 9 9 11 11 13 9 5 9 5 2 3 3 3 2 4 3 5 8 7 7 8 8 8 9 10 10 13 13 13 15 20 17 16 15 15 15 16 15 14 15 12 11 10 9 6 5 5 6 7 8 9 9 9 7 7 7 8 8 11 15 20 26 28 29 31 30 27
11 12 11 12 14 14 8 7 6 5 6 8 10 10 10 9 9 10 7 7 9 11 11 9 5 8 6 3 nan 3 1 2 4 5 4 4 4 1 2 3 8 11 9 10 12 13 13 15 16 14 13 13 13 15 14 13 14 12 9 7 6 6 5 4 4 5 6 8 8 8 7 6 5 7 7 8 11 16 21 24 25 26 30 27 25
10 11 11 12 13 12 10 8 5 4 5 5 8 9 9 9 10 9 10 9 7 7 8 7 6 5 4 3 3 5 3 4 5 5 3 2 1 2 4 2 9 9 8 5 6 10 15 15 14 14 13 13 12 10 10 13 13 10 7 7 6 5 4 2 4 6 7 6 6 6 6 6 5 6 7 9 13 16 21 22 23 26 27 24 23
8 10 11 11 10 10 10 8 7 4 3 5 6 8 9 9 8 7 8 7 7 6 4 4 6 7 7 6 5 5 4 3 4 4 2 2 2 4 2 3 5 7 5 4 4 8 13 11 10 11 14 14 11 9 13 15 13 8 7 6 6 4 3 4 6 7 6 5 6 6 6 6 6 5 7 9 12 16 20 21 22 26 25 22 21
6 7 8 8 8 8 8 9 8 5 4 5 6 7 8 8 8 8 7 6 6 5 7 3 6 4 5 6 7 6 4 4 2 2 1 0 1 3 3 2 3 5 4 5 5 8 9 7 6 9 10 11 12 12 13 13 9 9 9 8 5 4 5 6 7 6 6 6 6 6 6 6 5 5 7 9 11 16 19 20 21 24 22 20 20
5 5 6 6 6 7 8 8 7 7 6 6 6 8 7 7 7 5 9 8 6 5 5 3 2 4 3 2 4 3 6 5 1 2 1 3 4 6 2 2 4 5 7 6 4 7 9 8 7 7 7 8 10 11 10 9 10 11 9 10 8 6 7 8 9 8 8 7 7 6 5 5 4 5 6 7 10 16 18 19 20 23 21 19 19
5 4 5 4 5 5 7 7 8 6 5 6 7 7 8 8 7 6 4 7 7 6 4 4 2 1 4 2 3 2 4 5 5 5 1 2 2 2 1 3 4 6 5 3 3 5 7 5 5 6 8 10 9 8 8 10 12 10 10 12 10 8 9 10 10 10 9 7 6 6 5 4 4 5 5 5 11 17 18 19 21 21 20 19 18
3 3 2 3 3 4 5 7 8 6 6 6 7 9 8 8 8 7 5 3 6 6 5 4 3 1 1 2 4 3 3 5 5 4 2 1 2 3 3 4 4 3 5 4 4 6 7 4 5 8 9 8 7 7 8 11 11 11 11 10 10 11 11 11 11 11 9 7 6 5 5 4 5 5 5 5 11 18 19 21 21 20 19 18 17
1 2 2 1 2 3 4 6 6 6 5 6 6 7 7 7 7 5 5 3 3 4 6 4 1 3 2 2 3 3 4 4 2 4 4 3 4 2 2 2 1 1 1 2 3 4 5 6 6 7 8 7 7 7 9 11 11 11 11 11 11 12 12 12 14 11 8 7 7 6 5 5 5 5 5 7 11 19 21 22 21 20 18 17 17
1 2 1 1 2 3 4 4 5 4 6 5 6 6 6 5 6 7 6 5 3 4 5 5 4 2 1 3 4 3 5 1 3 3 3 5 3 4 3 1 1 1 1 2 4 2 5 7 5 6 7 6 7 7 8 10 10 9 12 12 12 12 11 12 13 10 8 9 8 8 6 6 6 5 6 8 12 21 24 23 22 20 18 17 17
1 1 1 0 1 2 2 3 3 5 6 5 4 4 7 7 6 6 6 4 4 4 5 3 1 4 3 4 5 4 0 1 2 3 4 3 7 5 3 3 2 2 2 2 4 2 4 4 6 9 7 6 8 8 10 10 9 8 11 13 13 12 13 11 12 12 10 12 10 9 7 7 7 6 7 9 12 22 24 24 23 21 19 17 17
2 2 2 2 2 2 3 3 4 5 4 3 3 3 5 6 6 4 4 4 4 4 4 5 2 4 4 4 5 3 2 3 4 3 3 2 6 6 8 5 2 3 2 5 6 4 6 10 12 10 8 8 10 12 12 9 9 9 13 15 14 13 11 10 11 12 12 14 12 10 9 8 8 7 7 8 11 20 24 24 23 22 20 18 17
4 4 3 3 3 3 3 4 4 4 3 4 4 5 5 5 5 4 3 5 5 2 3 5 5 4 5 5 4 2 0 3 2 3 3 7 9 6 3 4 6 5 3 4 5 6 10 12 10 8 8 10 12 14 12 11 10 11 17 19 16 13 12 12 12 13 14 15 14 11 9 9 8 8 8 8 9 18 23 23 22 21 20 18 17
4 6 5 4 4 4 4 6 5 4 2 3 5 4 5 6 6 4 3 4 5 4 5 6 6 5 4 4 6 6 5 4 5 5 5 4 3 1 4 6 9 5 3 4 9 12 12 10 9 9 9 11 13 14 13 12 12 13 20 21 17 13 14 15 14 14 15 15 13 11 10 9 9 8 8 8 10 17 22 22 21 21 20 19 17
6 5 5 5 4 5 6 6 4 3 5 4 5 4 4 3 3 2 3 3 3 3 3 5 6 5 5 3 3 3 3 3 5 6 6 5 7 7 8 6 5 5 4 7 14 11 9 9 9 10 10 13 16 15 14 12 13 17 19 18 17 17 17 17 16 15 16 16 13 12 10 10 10 9 9 9 10 16 22 22 21 20 20 19 18
6 6 7 6 5 6 7 6 6 6 5 3 4 4 4 2 2 3 2 2 3 3 3 4 4 5 6 3 4 4 4 6 5 4 5 6 7 7 7 10 7 6 6 9 7 4 6 8 8 8 11 16 17 16 13 14 17 18 18 16 19 19 20 19 17 17 18 16 13 12 12 12 12 11 11 11 12 15 21 22 20 19 19 19 19
6 6 8 6 5 6 6 6 7 6 5 5 5 5 3 3 3 3 3 2 2 3 3 4 4 5 4 4 3 5 5 5 5 6 6 6 6 8 7 5 6 7 5 3 3 3 6 8 7 10 14 15 14 13 14 16 15 16 17 18 19 21 21 21 18 17 19 17 14 14 13 13 12 11 10 11 13 18 21 21 20 19 18 18 18
6 6 6 4 6 5 5 5 6 5 5 5 5 4 2 2 2 3 2 2 2 3 3 3 4 4 4 4 4 2 4 4 8 7 8 8 10 9 9 7 6 6 6 10 11 16 10 15 17 17 13 11 11 12 13 14 14 14 14 18 19 21 22 21 17 18 18 17 15 14 13 12 12 10 10 11 14 19 23 22 20 19 17 16 17
5 5 4 3 4 5 4 4 4 4 4 4 3 3 3 0 2 3 3 2 1 2 2 2 3 3 2 2 1 2 2 1 3 5 5 6 6 7 10 10 8 6 6 6 6 8 7 7 8 10 9 10 11 11 11 10 12 9 14 20 20 20 23 19 17 17 17 18 15 15 14 12 11 10 10 10 14 19 23 24 22 20 18 17 16
4 4 3 2 3 3 3 3 4 4 3 2 2 2 1 1 0 1 1 2 2 1 1 2 2 0 1 1 2 3 3 2 2 4 5 7 7 7 9 10 11 10 7 6 6 8 7 7 9 9 9 9 8 9 10 10 11 11 15 20 21 21 20 20 18 18 18 17 15 15 14 14 13 12 10 10 13 18 22 24 23 21 19 18 17
4 4 1 3 3 4 4 2 3 2 1 2 2 1 2 2 2 3 4 4 3 2 3 3 1 2 3 1 3 4 5 6 4 4 6 5 3 6 9 10 13 13 11 8 6 7 6 5 8 8 8 7 8 8 10 9 8 9 14 16 21 20 24 22 20 20 18 17 15 nan 14 15 14 12 10 9 8 13 20 23 22 21 20 19 18
3 2 1 3 3 4 3 2 3 2 1 1 2 2 2 3 2 3 3 4 5 4 3 3 3 4 4 3 3 2 3 5 4 4 9 10 6 4 1 7 12 13 13 11 6 5 7 6 6 8 10 10 10 10 9 10 9 8 11 14 18 24 25 22 22 19 19 18 16 nan nan nan 15 14 11 10 8 9 19 22 22 21 20 19 18
3 2 2 2 3 3 2 3 3 3 2 2 3 4 4 5 3 3 2 3 4 3 3 3 3 4 5 5 4 4 5 7 7 7 10 8 8 5 5 3 7 12 14 13 10 6 6 8 7 8 9 10 10 11 9 9 9 7 10 11 18 25 22 20 20 20 19 18 nan nan nan nan nan 16 14 12 11 7 17 24 22 21 20 19 18
4 5 3 3 5 4 4 3 3 4 5 4 4 6 6 6 6 5 5 6 5 4 4 3 5 6 8 8 7 8 9 10 8 8 8 9 7 7 6 7 7 9 13 14 13 7 5 8 9 10 10 10 11 13 11 9 7 8 9 12 19 24 25 23 22 21 20 18 nan nan nan nan nan nan nan 16 14 12 10 19 22 20 19 19 19
4 5 5 4 5 6 5 6 4 5 7 7 5 8 8 8 7 8 9 7 7 7 6 5 6 8 9 8 7 8 10 10 8 6 9 10 12 10 11 10 10 10 11 15 15 14 10 10 10 11 11 13 13 15 14 10 10 11 11 10 14 22 24 26 24 23 21 18 17 16 nan nan nan nan nan nan 18 17 15 16 22 20 19 19 19
3 4 5 6 7 6 5 7 7 8 9 8 7 8 9 9 9 10 11 10 9 8 8 7 9 9 9 10 9 9 10 11 9 7 10 10 11 10 12 13 11 11 13 15 17 15 14 14 15 13 14 13 15 13 14 14 14 15 15 15 15 17 23 25 25 23 23 20 18 17 15 nan nan nan nan nan nan 20 19 17 18 21 20 19 19
5 6 7 7 7 8 9 9 8 8 9 9 9 10 11 10 13 13 12 12 11 10 9 10 12 11 11 11 11 10 12 12 11 12 11 13 12 11 12 14 14 13 15 17 17 18 17 17 15 17 16 15 14 14 15 14 15 15 17 19 17 18 18 24 24 23 23 23 22 20 16 nan nan nan nan nan nan 21 22 20 19 18 18 19 19
8 10 9 10 9 9 9 10 10 10 11 12 11 11 13 15 15 15 14 14 13 12 12 14 14 14 13 14 13 13 15 15 13 13 13 13 14 14 13 12 14 13 16 17 18 18 18 17 16 18 19 18 17 15 17 16 15 16 17 19 17 18 17 19 25 23 25 26 27 23 19 nan nan nan nan nan nan nan 23 22 21 20 18 18 19
11 10 13 11 12 11 10 11 12 13 14 15 15 15 16 17 16 15 15 14 14 14 14 14 14 15 15 14 14 15 16 18 17 16 16 15 18 16 14 16 17 16 16 18 20 20 18 17 19 17 20 19 18 17 17 18 16 16 17 17 16 17 18 17 20 23 22 24 25 24 nan nan 20 nan nan nan nan nan nan nan nan 21 20 18 16
15 9 11 13 13 13 12 12 13 14 15 16 18 17 17 17 17 17 16 15 14 15 14 14 14 15 15 15 15 16 17 18 18 18 18 16 19 17 16 15 17 19 19 18 19 20 19 17 17 19 18 18 19 16 16 17 17 19 20 17 16 17 20 20 18 18 22 24 26 29 26 25 26 25 24 nan nan nan nan nan nan nan 21 19 18
14 12 13 12 14 17 17 18 15 16 17 19 19 18 17 18 18 17 17 16 16 15 14 13 14 15 15 15 15 16 18 18 21 20 19 19 19 19 17 17 18 20 19 19 19 18 18 18 18 17 19 18 17 17 18 19 16 17 20 22 20 19 20 23 22 20 20 22 27 27 29 29 28 29 26 24 nan nan nan nan nan nan nan 20 18
15 23 20 21 23 25 22 22 21 22 18 15 19 18 18 16 17 17 18 17 17 16 16 15 16 16 15 15 17 18 20 21 20 26 29 27 25 24 22 21 20 19 19 20 19 19 18 18 17 18 18 18 18 17 17 16 16 16 20 23 23 24 24 24 24 25 24 24 26 28 29 28 28 29 30 25 nan nan nan nan nan nan nan nan nan
19 21 24 22 24 24 22 22 20 19 22 20 20 22 23 20 20 19 18 20 19 18 18 20 20 20 22 22 20 24 30 33 34 32 31 31 29 27 25 23 22 21 20 19 18 18 18 18 18 18 18 19 20 20 19 19 19 20 21 22 23 25 27 26 26 26 28 27 29 28 28 29 28 28 29 27 22 nan nan nan nan nan nan nan nan
26 24 23 25 25 26 25 25 24 23 24 23 24 24 26 26 24 23 22 21 19 17 21 21 23 26 25 24 26 31 31 32 31 34 32 32 30 29 26 24 23 23 22 21 20 21 19 18 19 19 19 18 20 21 20 21 22 23 23 26 25 26 27 28 27 27 30 32 29 28 27 30 28 28 29 29 26 25 24 26 nan nan nan nan nan
27 24 26 26 25 25 25 25 26 25 26 26 25 25 26 27 28 25 24 25 24 22 23 26 28 28 27 26 28 30 31 32 33 31 31 29 29 28 27 27 25 23 22 24 22 22 22 20 18 19 19 18 20 23 23 24 22 21 22 26 28 28 27 27 29 30 30 31 31 30 28 31 31 30 30 30 31 29 26 28 nan nan nan nan nan
26 25 26 28 27 26 28 29 29 28 28 28 26 26 28 29 29 27 26 25 25 28 29 29 30 30 28 28 29 30 30 33 31 30 30 29 27 27 26 25 24 23 23 20 22 23 22 20 19 19 21 22 22 24 27 26 24 21 25 26 28 29 28 26 27 29 28 31 32 31 31 29 32 33 32 31 33 31 29 27 nan nan nan nan nan
26 26 28 29 29 29 30 32 32 31 30 29 28 27 29 31 31 28 25 24 27 31 31 31 31 31 30 29 31 32 31 30 29 28 28 28 28 27 28 27 nan 24 22 21 27 27 26 23 21 20 22 23 21 23 24 26 25 24 27 29 30 29 30 29 31 30 29 30 30 34 33 31 32 32 32 31 33 31 28 nan nan nan nan nan nan
28 28 29 30 30 32 34 34 34 32 30 30 30 28 29 31 32 30 28 28 31 33 32 32 32 31 31 33 36 35 33 31 30 29 29 28 28 nan nan nan nan nan nan 34 31 30 28 27 25 23 23 25 25 25 27 28 27 29 32 31 30 31 32 34 32 31 29 32 32 37 35 34 30 30 30 32 33 32 nan nan nan nan nan nan nan
32 32 30 29 31 34 35 36 35 33 30 32 32 30 30 32 34 35 35 36 36 35 34 33 33 34 36 38 38 37 35 33 31 30 nan nan nan nan nan nan nan nan nan 35 34 31 29 26 26 24 24 23 23 26 28 30 30 31 31 34 33 35 37 36 34 33 32 35 35 35 36 35 28 30 30 31 32 32 nan nan nan nan nan nan nan
35 34 32 29 29 32 34 33 35 33 33 33 36 36 37 38 39 38 38 39 39 39 38 37 37 38 38 38 39 38 35 nan nan nan nan nan nan nan nan nan nan nan nan nan nan nan nan nan nan nan nan nan nan nan nan nan nan 35 36 36 35 39 39 35 32 30 30 34 33 34 35 34 29 29 31 31 30 nan nan nan nan nan nan nan nan
34 32 32 32 33 35 36 35 34 37 37 38 41 41 42 44 43 42 40 41 41 41 40 40 40 40 40 nan nan nan nan nan nan nan nan nan nan nan nan nan nan nan nan nan nan nan nan nan nan nan nan nan nan nan nan nan 32 36 37 34 35 36 32 33 nan 32 31 31 31 32 34 34 32 30 nan nan nan nan nan nan nan nan nan nan nan
34 32 33 36 36 38 38 39 44 42 40 41 46 47 47 44 45 45 45 45 46 44 nan nan nan nan nan nan nan nan nan nan nan nan nan nan nan nan nan nan nan nan nan nan nan nan nan nan nan nan nan nan nan nan nan 27 28 30 33 31 30 30 28 30 30 30 29 30 30 28 29 30 nan nan nan nan nan nan nan nan nan nan nan nan nan
Wind_Direction
92 95 101 112 111 100 102 105 107 107 109 107 105 105 105 108 106 110 113 111 115 125 129 129 133 134 134 127 116 111 102 55 49 43 42 39 34 25 17 17 19 18 20 23 24 24 25 26 26 25 26 27 28 31 36 43 48 50 50 49 49 50 50 50 48 46 43 39 40 42 40 38 34 30 27 24 22 20 20 20 21 20 17 17 16
100 109 99 102 96 95 101 107 112 114 118 106 105 112 120 123 127 122 120 123 129 128 125 130 131 127 123 109 114 101 86 50 45 38 38 34 34 33 23 25 22 23 23 24 25 26 26 27 30 30 28 28 30 31 33 37 44 49 50 49 48 48 47 46 45 44 39 37 35 35 35 34 34 30 26 24 21 19 18 19 18 17 14 16 15
98 100 88 90 95 99 104 112 117 115 107 105 111 119 118 119 119 115 119 123 129 124 116 128 123 120 113 113 108 85 83 75 54 40 30 27 23 28 31 27 28 26 25 26 27 28 26 25 29 30 29 26 27 31 31 33 37 43 48 48 46 45 42 40 41 40 35 34 37 37 34 32 29 27 27 24 21 17 16 17 17 12 14 12 13
102 90 85 90 96 101 112 112 108 109 112 114 112 112 117 109 110 125 126 127 123 118 121 111 114 106 108 104 97 81 77 83 72 44 30 22 18 28 30 29 29 27 22 23 25 25 24 25 26 28 26 24 25 29 31 32 35 40 44 47 45 41 40 38 38 36 34 38 42 42 38 33 28 23 22 22 20 17 14 12 12 11 11 10 10
100 98 95 91 102 105 106 103 105 110 119 122 116 117 111 122 127 128 129 119 130 138 126 104 108 102 103 109 105 91 80 65 77 66 20 25 21 24 26 28 24 23 20 22 24 23 21 22 25 25 22 18 19 25 31 34 38 43 45 47 45 41 42 42 39 41 43 46 48 47 41 34 27 20 18 17 15 12 9 6 6 6 6 4 6
104 107 107 106 102 100 102 102 112 113 121 129 143 131 129 130 132 127 126 136 141 128 136 117 113 121 113 101 105 88 64 55 62 36 28 28 23 16 25 28 16 5 1 18 20 19 21 20 23 23 18 16 15 20 28 32 38 44 44 43 43 43 44 43 43 49 52 50 48 45 40 35 27 17 15 13 8 3 1 359 360 3 357 353 355
96 96 100 103 103 96 106 111 113 128 145 144 145 134 128 131 127 123 123 133 127 125 131 110 126 126 112 115 87 95 78 63 53 36 30 46 12 13 23 17 6 357 354 352 5 16 17 18 21 20 16 11 14 21 27 30 35 40 39 37 37 36 40 45 49 54 52 45 41 38 32 26 16 8 11 11 2 354 353 355 355 350 349 350 352
89 92 101 93 96 103 103 112 133 143 152 154 146 145 132 127 118 119 137 128 129 124 129 112 111 113 117 102 108 117 121 81 29 42 26 20 9 11 15 4 353 353 352 345 349 358 12 13 15 19 17 14 14 18 27 31 36 41 39 36 35 31 34 41 54 54 49 39 35 29 21 15 6 359 2 4 355 348 347 348 345 347 346 346 341
97 98 87 97 102 104 111 119 146 157 162 159 151 136 127 122 121 112 103 100 111 125 128 133 145 121 113 129 134 124 122 119 124 3 353 11 17 10 6 353 354 6 357 344 350 352 359 18 18 11 11 12 14 20 24 30 38 40 39 36 37 32 33 45 60 58 45 29 26 22 15 12 357 353 352 356 348 344 344 343 345 345 344 339 341
98 92 93 101 107 115 111 132 160 162 172 158 139 135 129 121 116 107 94 119 125 122 110 123 148 140 120 123 106 100 80 68 16 46 8 18 19 0 5 353 7 10 5 357 352 353 351 8 19 13 10 9 10 17 24 27 31 35 34 31 28 24 31 39 54 51 31 17 17 12 12 3 355 350 349 351 345 344 343 343 346 344 340 339 340
96 98 104 108 114 109 117 150 163 155 174 164 140 130 121 108 108 105 105 108 97 111 121 119 143 142 95 61 nan 100 73 38 67 68 76 67 79 278 299 344 6 0 12 8 4 355 355 360 0 3 12 11 4 11 14 21 32 32 25 27 23 14 20 27 30 31 13 8 10 9 5 354 353 348 346 354 349 346 343 347 347 343 338 340 342
103 108 107 103 110 124 141 146 133 156 173 153 129 122 110 128 139 129 133 125 109 117 132 126 128 119 113 80 9 28 72 68 75 62 81 175 342 308 259 337 341 2 1 7 353 347 345 348 352 6 13 9 9 17 20 29 34 31 7 17 5 4 5 354 10 12 358 356 3 0 359 356 351 343 353 1 353 345 346 349 347 341 340 342 344
117 109 107 117 123 123 131 138 128 133 142 127 126 127 142 152 128 127 133 150 115 120 153 107 175 142 147 157 135 105 93 76 99 156 321 43 141 258 291 308 357 332 340 350 335 326 341 348 359 15 19 3 356 21 33 30 39 29 12 4 357 353 346 1 9 359 345 352 1 4 359 357 351 352 2 3 354 347 350 350 347 342 342 344 348
105 110 116 120 127 120 120 128 121 120 118 130 131 140 147 145 138 140 136 151 132 142 154 194 156 139 136 133 140 130 100 105 284 279 213 348 282 289 279 23 346 307 334 8 357 332 328 318 350 28 26 3 1 9 13 17 22 19 17 359 340 341 356 1 357 348 356 1 3 3 354 353 352 5 8 4 352 350 352 353 350 345 345 347 356
110 114 119 118 123 118 112 115 117 114 125 140 147 140 134 136 147 160 152 143 139 149 157 203 101 95 95 121 130 157 117 132 116 317 187 197 222 227 191 22 2 328 9 3 326 327 332 328 349 7 14 7 4 4 6 23 28 35 18 343 348 354 360 357 359 5 12 10 6 360 354 354 3 20 14 4 354 352 354 356 351 347 348 350 2
115 114 131 135 129 121 119 111 108 105 101 119 144 134 143 150 149 162 156 159 150 133 137 168 93 177 140 110 107 136 128 121 140 104 108 211 221 180 188 71 26 12 358 292 255 317 332 340 353 20 16 6 0 1 17 34 48 49 8 343 344 356 6 5 11 20 22 19 15 13 3 6 28 31 21 11 352 353 356 354 350 352 352 355 3
108 118 112 110 109 103 113 108 105 104 112 118 130 135 148 149 140 158 159 138 157 137 127 161 189 90 55 144 148 160 91 106 141 102 157 175 154 176 184 118 86 8 351 330 288 305 335 1 17 22 22 3 355 9 24 38 42 24 351 345 350 6 10 10 22 27 27 28 34 34 23 30 48 49 28 22 357 356 356 352 354 355 357 358 359
107 87 103 84 99 108 104 98 110 123 120 104 121 127 141 155 133 140 132 131 99 150 138 137 206 224 211 91 57 66 72 102 170 91 118 16 65 49 4 124 262 81 317 320 273 272 340 9 22 24 25 360 1 13 26 37 29 7 356 3 6 12 15 17 27 28 27 42 49 47 41 46 50 51 31 22 4 357 355 354 355 358 1 359 356
125 100 51 87 81 82 79 93 110 118 119 117 109 111 113 115 124 131 106 102 112 130 136 134 152 147 201 84 74 69 357 48 78 83 125 111 107 89 106 82 105 61 233 347 8 330 33 16 29 37 42 25 16 21 36 44 40 16 356 8 11 16 19 25 28 26 33 50 51 48 47 46 44 38 33 24 11 357 354 354 357 359 3 1 357
184 150 186 108 110 111 117 122 117 121 119 86 97 116 123 123 112 111 116 123 98 97 112 127 187 114 114 89 72 61 105 214 53 12 29 87 117 101 94 126 85 15 287 77 46 65 80 53 34 35 32 34 21 31 36 40 38 28 16 17 17 17 22 26 28 26 38 51 48 47 45 44 44 36 37 27 17 359 355 354 358 360 4 4 360
166 142 138 128 126 134 129 124 119 110 122 99 93 86 86 105 125 116 121 116 110 102 114 107 102 96 118 99 80 82 6 41 7 348 12 36 84 77 93 111 82 38 31 39 36 39 59 46 37 23 16 16 26 35 31 28 34 27 21 22 18 17 19 29 28 26 37 50 47 45 44 45 44 40 40 31 19 1 357 355 357 359 3 8 3
137 126 126 115 131 146 138 118 110 110 116 82 89 87 96 101 100 97 105 116 123 121 105 97 89 78 58 64 86 107 71 56 26 1 25 16 42 81 53 81 103 56 22 48 70 74 53 42 36 18 15 19 28 32 23 22 25 27 22 21 14 5 20 30 28 27 35 46 46 43 43 47 46 43 38 30 20 5 360 354 359 0 1 6 6
100 110 110 125 125 130 114 109 110 113 101 81 92 92 96 99 98 96 125 110 119 130 128 119 114 109 84 42 50 34 34 39 34 17 8 7 45 57 90 54 63 66 63 9 40 49 41 39 34 27 17 19 28 29 19 21 28 32 21 18 0 357 19 29 25 22 30 39 44 40 40 45 48 42 34 29 18 6 1 356 359 3 2 4 5
105 100 97 107 118 111 113 110 118 119 99 106 104 90 95 88 139 135 129 115 137 138 120 127 136 121 106 77 59 51 31 28 36 13 353 7 21 23 25 61 68 31 20 27 38 32 43 40 37 25 21 21 26 23 18 19 30 43 28 10 351 359 20 26 19 14 21 25 32 35 33 36 43 38 31 28 17 7 1 358 359 4 3 1 3
96 90 99 89 101 96 106 109 113 111 112 132 122 110 111 116 140 126 126 117 112 156 154 123 121 125 108 108 64 68 38 35 12 359 23 26 11 19 21 24 21 52 39 18 24 27 42 50 38 31 30 24 24 19 9 17 17 35 32 3 357 5 19 23 12 9 10 8 21 27 28 31 32 31 26 22 18 12 3 358 359 3 5 4 2
92 77 75 79 76 73 87 92 101 104 109 109 108 112 125 133 122 130 129 101 137 139 141 131 124 116 117 119 80 29 25 5 355 358 19 17 12 350 360 4 2 15 20 59 38 338 52 48 46 46 36 22 24 17 13 19 16 30 5 3 6 13 20 20 8 7 6 351 13 18 20 23 23 20 19 15 11 7 3 358 360 2 5 5 3
79 78 75 62 43 60 62 69 86 93 93 98 96 108 130 148 141 145 145 140 146 169 147 109 106 112 101 69 72 70 52 4 341 8 7 4 355 340 333 349 350 349 4 12 5 14 8 10 23 22 14 4 6 4 13 15 19 30 2 2 9 16 21 18 4 6 358 341 2 11 9 16 17 7 7 9 8 2 360 357 359 1 1 2 2
95 104 85 36 36 43 48 52 71 73 72 80 90 98 104 105 161 134 126 171 125 83 75 91 103 103 108 126 80 97 221 155 354 352 354 352 347 340 319 327 333 345 360 6 352 359 6 353 352 347 346 359 10 12 18 14 6 0 351 360 9 10 18 8 4 4 353 335 351 1 357 2 4 355 356 0 2 359 358 357 358 360 357 355 358
109 119 94 45 57 36 38 39 42 62 59 64 89 108 54 302 15 120 108 135 183 302 338 354 7 331 133 93 312 329 316 60 29 17 344 336 358 321 320 325 327 325 350 3 1 355 0 345 346 348 344 350 5 8 14 10 5 4 354 357 3 6 1 358 4 7 347 333 347 358 351 348 348 348 352 357 358 1 359 358 358 359 357 355 356
81 94 50 19 48 30 22 41 16 26 31 29 39 48 319 326 344 4 11 2 10 358 344 316 337 354 17 5 306 336 341 333 320 276 299 349 318 331 335 332 325 330 339 349 12 352 357 348 336 340 336 348 353 5 355 0 17 13 352 348 359 356 353 358 2 4 342 335 348 nan 346 341 339 338 346 360 13 8 3 359 358 358 360 357 356
60 86 329 15 356 20 14 8 357 360 14 346 6 24 339 339 347 24 15 353 2 9 360 341 2 356 321 302 295 292 305 279 277 263 254 253 259 290 101 346 332 324 329 329 328 341 325 337 333 322 326 340 347 345 351 352 2 5 359 354 351 349 351 357 359 358 340 341 349 nan nan nan 336 332 335 349 359 8 3 358 358 358 359 360 359
29 25 11 356 358 345 340 311 337 339 343 351 345 338 325 330 349 25 17 350 327 332 321 306 317 295 278 287 296 300 289 281 272 273 291 325 323 315 333 346 329 321 320 323 330 2 324 331 337 327 317 327 335 334 338 342 347 359 354 358 341 339 347 350 352 354 341 345 nan nan nan nan nan 327 326 331 335 336 356 354 356 355 355 357 357
339 356 351 323 333 320 306 307 303 323 339 350 347 337 333 334 337 311 279 270 269 254 262 263 278 283 284 284 285 285 287 286 294 304 316 302 307 332 329 296 291 307 319 321 327 334 308 322 325 315 319 320 324 324 326 332 340 341 347 349 338 340 340 342 341 344 335 339 nan nan nan nan nan nan nan 321 320 321 325 347 348 350 351 351 349
322 331 336 288 305 299 303 314 324 304 328 322 314 310 323 324 317 297 293 283 276 277 278 281 281 280 284 278 280 284 293 291 295 302 319 313 334 324 306 306 305 320 320 317 319 316 323 309 308 314 316 315 319 322 325 326 335 333 336 335 329 335 333 333 333 335 330 334 339 334 nan nan nan nan nan nan 313 310 312 323 337 342 346 343 342
269 306 307 292 293 305 306 306 315 293 307 302 301 298 304 307 307 296 291 288 289 292 289 286 279 280 280 286 289 293 294 287 293 296 304 311 306 308 302 301 305 321 319 311 311 320 321 319 317 313 315 310 317 321 317 324 329 332 329 320 312 320 328 325 326 325 328 328 325 322 324 nan nan nan nan nan nan 305 303 307 323 335 333 331 337
269 291 285 286 282 286 289 298 308 304 305 303 305 298 301 305 295 298 296 297 297 291 289 288 284 286 294 294 296 295 290 289 298 300 299 304 303 305 295 304 311 309 311 311 310 311 310 310 311 316 312 311 313 315 314 317 322 322 322 317 312 312 319 325 321 324 325 324 318 310 313 nan nan nan nan nan nan 303 301 302 303 306 315 327 335
258 273 278 275 279 284 299 298 295 306 305 302 298 292 283 282 289 291 291 293 295 297 296 296 300 299 300 302 304 303 297 299 298 296 294 293 298 291 290 296 297 300 303 305 301 298 303 309 306 307 307 308 312 313 316 314 310 312 313 308 310 309 310 321 323 319 320 324 317 310 309 nan nan nan nan nan nan nan 299 301 303 303 306 314 325
253 256 279 283 283 286 284 293 290 291 289 289 287 283 281 283 283 283 283 285 288 290 292 296 298 299 301 305 305 304 303 302 302 297 295 291 295 298 298 296 301 302 304 298 296 299 303 307 306 299 299 306 303 310 315 314 314 310 306 304 304 307 309 316 325 326 328 327 322 317 nan nan 310 nan nan nan nan nan nan nan nan 304 305 307 313
257 266 269 283 287 287 288 286 286 284 284 281 278 276 276 281 281 281 282 281 281 285 287 295 297 298 301 301 302 304 306 305 301 301 299 298 302 302 301 298 300 304 303 300 300 303 305 304 299 304 302 301 307 310 311 312 312 311 311 304 306 311 314 320 325 324 326 327 321 321 319 317 315 310 308 nan nan nan nan nan nan nan 299 300 305
266 258 260 269 279 263 245 233 238 265 258 257 268 274 279 280 283 284 283 281 280 281 284 287 290 295 299 301 301 298 302 301 299 299 296 291 286 286 283 283 292 300 302 304 304 307 308 305 305 300 299 298 297 306 301 296 296 298 305 310 317 317 318 317 321 321 319 319 319 315 310 309 308 307 310 310 nan nan nan nan nan nan nan 292 293
251 258 242 237 249 257 258 253 238 246 254 250 257 262 264 267 274 278 281 281 283 285 285 287 288 292 293 292 287 281 280 288 291 286 282 282 282 282 279 281 283 290 299 302 306 305 304 302 301 299 296 295 297 295 294 295 303 308 303 306 312 314 314 311 313 319 322 319 317 312 311 311 310 309 309 309 nan nan nan nan nan nan nan nan nan
248 255 261 259 258 262 267 260 255 253 255 256 248 254 260 265 263 262 269 273 271 274 280 277 278 276 273 275 273 271 269 267 269 269 270 271 273 279 286 287 289 288 290 292 295 299 297 297 298 298 295 295 293 292 293 293 293 293 296 302 306 307 306 308 307 311 316 318 314 317 315 311 307 304 304 304 300 nan nan nan nan nan nan nan nan
253 260 259 259 264 267 269 267 259 255 258 254 242 249 252 254 261 261 260 260 267 273 276 280 279 274 271 271 275 271 270 270 268 264 266 265 267 269 270 274 281 287 287 287 290 289 291 292 293 293 294 290 289 289 291 290 289 296 300 303 306 301 303 301 303 304 310 312 310 311 314 314 308 301 297 298 297 293 296 301 nan nan nan nan nan
254 259 261 263 265 267 267 269 268 266 265 256 252 255 258 257 259 263 263 263 262 264 273 273 273 274 273 273 274 273 271 270 272 270 269 265 267 267 269 269 268 272 287 291 289 289 290 290 287 286 280 280 281 282 282 282 284 288 299 300 302 304 304 307 308 310 308 304 301 302 301 310 309 300 294 292 291 292 294 299 nan nan nan nan nan
266 266 267 266 266 265 267 268 266 264 264 255 255 258 259 259 259 265 268 266 266 267 269 268 268 269 271 273 276 273 271 265 269 272 274 275 270 267 269 271 273 272 270 276 295 299 290 289 286 283 281 276 275 282 284 283 283 287 287 291 296 300 300 302 307 305 304 301 299 304 304 309 309 304 294 289 290 292 293 293 nan nan nan nan nan
268 269 270 270 268 268 266 266 265 264 262 256 254 257 261 261 263 270 273 275 274 273 271 270 270 271 271 270 273 274 272 271 272 273 278 278 280 281 281 282 nan 281 281 280 266 265 273 279 276 276 274 273 276 277 276 281 283 287 291 291 292 297 300 304 299 300 300 295 304 301 300 301 306 301 293 288 288 287 285 nan nan nan nan nan nan
273 271 272 275 274 273 273 271 269 265 262 258 257 256 261 265 266 273 275 276 276 276 276 277 277 276 276 272 273 275 275 273 273 273 278 279 280 nan nan nan nan nan nan 277 275 276 273 272 272 273 273 274 275 275 278 280 284 285 290 291 290 292 291 292 295 300 298 294 294 296 299 296 298 299 294 291 287 282 nan nan nan nan nan nan nan
265 267 265 269 274 275 274 272 271 267 262 256 258 259 263 269 272 270 269 271 273 273 271 272 273 271 272 273 275 276 275 273 270 267 nan nan nan nan nan nan nan nan nan 279 278 275 274 276 278 277 277 278 280 281 281 283 285 288 287 289 294 294 292 293 296 294 295 293 292 293 292 292 292 296 291 285 285 286 nan nan nan nan nan nan nan
268 270 271 271 273 273 270 269 269 266 263 257 259 261 263 266 270 270 271 272 273 273 273 273 273 273 272 271 272 275 275 nan nan nan nan nan nan nan nan nan nan nan nan nan nan nan nan nan nan nan nan nan nan nan nan nan nan 288 289 289 290 292 294 294 291 290 295 295 293 290 288 289 291 287 285 282 285 nan nan nan nan nan nan nan nan
270 273 273 269 266 268 269 268 266 266 263 257 255 257 262 265 269 272 274 274 273 273 272 273 276 275 275 nan nan nan nan nan nan nan nan nan nan nan nan nan nan nan nan nan nan nan nan nan nan nan nan nan nan nan nan nan 287 289 287 288 285 289 294 295 nan 298 295 296 294 289 285 285 287 284 nan nan nan nan nan nan nan nan nan nan nan
265 268 265 263 264 264 267 269 267 267 265 261 259 259 259 262 271 275 274 272 271 270 nan nan nan nan nan nan nan nan nan nan nan nan nan nan nan nan nan nan nan nan nan nan nan nan nan nan nan nan nan nan nan nan nan 281 282 288 290 288 284 287 291 292 293 292 294 297 285 277 281 284 nan nan nan nan nan nan nan nan nan nan nan nan nan